Tracking 22130 objects as of 21-Jan-2021
HD Live streaming from Space Station
objects crossing your sky now

STARLINK-1592

Track STARLINK-1592 now!
10-day predictions
STARLINK-1592 is classified as:


NORAD ID: 46139
Int'l Code: 2020-057Y
Perigee: 553.4 km
Apogee: 555.4 km
Inclination: 53.1 °
Period: 95.6 minutes
Semi major axis: 6925 km
RCS: Unknown
Launch date: August 18, 2020
Source: United States (US)
Launch site: AIR FORCE EASTERN TEST RANGE (AFETR)
aabbcc
Your satellite tracking list
Your tracking list is empty




NASA's NSSDC Master Catalog

Two Line Element Set (TLE):
1 46139U 20057Y   21021.55392259  .00000576  00000-0  57549-4 0  9995
2 46139  53.0571  85.4249 0001448  64.1987 295.9152 15.06389103 24409
Source of the keplerian elements: AFSPC